Time,TemperatureF,DewpointF,PressureIn,WindDirection,WindDirectionDegrees,WindSpeedMPH,WindSpeedGustMPH,Humidity,HourlyPrecipIn,Conditions,Clouds,dailyrainin,SolarRadiationWatts/m^2,SoftwareType,DateUTC
2013-05-04 00:00:00,42.5,24.2,30.09,North,0,6.0,16.0,48,0.00,,,0.00,0,LWC V2.10 B1813,2013-05-04 05:00:00,
2013-05-04 00:01:00,41.6,24.4,30.09,NNW,344,2.0,7.0,50,0.00,,,0.00,,LWC V1.12 B30,2013-05-04 05:01:00,
2013-05-04 00:06:00,41.5,24.3,30.09,North,0,5.0,10.0,50,0.00,,,0.00,,LWC V1.12 B30,2013-05-04 05:06:00,
2013-05-04 00:10:00,42.5,24.2,30.09,North,0,6.0,16.0,48,0.00,,,0.00,0,LWC V2.10 B1813,2013-05-04 05:10:00,
2013-05-04 00:11:00,41.6,24.4,30.09,NNE,13,5.0,10.0,50,0.00,,,0.00,,LWC V1.12 B30,2013-05-04 05:11:00,
2013-05-04 00:16:00,41.6,24.4,30.09,North,5,6.0,9.0,50,0.00,,,0.00,,LWC V1.12 B30,2013-05-04 05:16:00,
2013-05-04 00:20:00,42.0,24.7,30.09,NNE,22,5.0,14.0,50,0.00,,,0.00,0,LWC V2.10 B1813,2013-05-04 05:20:00,
2013-05-04 00:21:00,41.6,24.4,30.09,North,0,4.0,13.0,50,0.00,,,0.00,,LWC V1.12 B30,2013-05-04 05:21:00,
2013-05-04 00:26:00,41.6,24.4,30.09,NNE,24,4.0,13.0,50,0.00,,,0.00,,LWC V1.12 B30,2013-05-04 05:26:00,
2013-05-04 00:30:00,41.5,24.3,30.09,North,0,5.0,12.0,50,0.00,,,0.00,0,LWC V2.10 B1813,2013-05-04 05:30:00,
2013-05-04 00:31:00,41.5,24.3,30.09,NNE,13,14.0,15.0,50,0.00,,,0.00,,LWC V1.12 B30,2013-05-04 05:31:00,
2013-05-04 00:36:00,41.6,24.4,30.09,NNE,14,10.0,11.0,50,0.00,,,0.00,,LWC V1.12 B30,2013-05-04 05:36:00,
2013-05-04 00:40:00,41.5,24.3,30.09,North,0,5.0,12.0,50,0.00,,,0.00,0,LWC V2.10 B1813,2013-05-04 05:40:00,
2013-05-04 00:41:00,41.7,24.0,30.09,North,351,8.0,12.0,49,0.00,,,0.00,,LWC V1.12 B30,2013-05-04 05:41:00,
2013-05-04 00:46:00,41.7,24.4,30.09,NE,40,5.0,10.0,50,0.00,,,0.01,,LWC V1.12 B30,2013-05-04 05:46:00,
2013-05-04 00:50:00,41.6,24.4,30.09,North,0,6.0,14.0,50,0.00,,,0.00,0,LWC V2.10 B1813,2013-05-04 05:50:00,
2013-05-04 00:51:00,41.6,24.4,30.09,North,0,9.0,12.0,50,0.00,,,0.01,,LWC V1.12 B30,2013-05-04 05:51:00,
2013-05-04 00:56:00,41.5,24.3,30.09,NE,37,5.0,14.0,50,0.00,,,0.01,,LWC V1.12 B30,2013-05-04 05:56:00,
2013-05-04 01:00:00,41.6,23.9,30.09,NNE,22,7.0,17.0,49,0.00,,,0.00,0,LWC V2.10 B1813,2013-05-04 06:00:00,
2013-05-04 01:01:00,41.4,24.2,30.09,NNE,28,5.0,12.0,50,0.00,,,0.02,,LWC V1.12 B30,2013-05-04 06:01:00,
2013-05-04 01:06:00,41.4,24.2,30.09,NNE,30,5.0,14.0,50,0.00,,,0.02,,LWC V1.12 B30,2013-05-04 06:06:00,
2013-05-04 01:10:00,41.6,23.9,30.09,NNE,22,7.0,17.0,49,0.00,,,0.00,0,LWC V2.10 B1813,2013-05-04 06:10:00,
2013-05-04 01:11:00,41.3,24.6,30.09,North,355,3.0,10.0,51,0.00,,,0.02,,LWC V1.12 B30,2013-05-04 06:11:00,
2013-05-04 01:16:00,41.1,24.4,30.09,NNW,342,5.0,17.0,51,0.00,,,0.03,,LWC V1.12 B30,2013-05-04 06:16:00,
2013-05-04 01:20:00,41.6,23.9,30.09,NNE,22,6.0,18.0,49,0.00,,,0.00,0,LWC V2.10 B1813,2013-05-04 06:20:00,
2013-05-04 01:21:00,40.9,24.6,30.09,North,5,4.0,11.0,52,0.00,,,0.03,,LWC V1.12 B30,2013-05-04 06:21:00,
2013-05-04 01:26:00,40.8,24.6,30.09,NNW,340,2.0,13.0,52,0.00,,,0.03,,LWC V1.12 B30,2013-05-04 06:26:00,
2013-05-04 01:30:00,41.4,24.6,30.09,NNE,22,5.0,14.0,51,0.00,,,0.00,0,LWC V2.10 B1813,2013-05-04 06:30:00,
2013-05-04 01:31:00,40.7,24.5,30.08,North,0,1.0,7.0,52,0.00,,,0.04,,LWC V1.12 B30,2013-05-04 06:31:00,
2013-05-04 01:36:00,40.6,24.4,30.08,NNW,327,6.0,13.0,52,0.00,,,0.04,,LWC V1.12 B30,2013-05-04 06:36:00,
2013-05-04 01:40:00,41.4,24.6,30.09,NNE,22,5.0,14.0,51,0.00,,,0.00,0,LWC V2.10 B1813,2013-05-04 06:40:00,
2013-05-04 01:41:00,40.6,24.8,30.09,NNW,346,7.0,14.0,53,0.00,,,0.04,,LWC V1.12 B30,2013-05-04 06:41:00,
2013-05-04 01:46:00,40.4,24.6,30.08,NNE,33,2.0,9.0,53,0.00,,,0.05,,LWC V1.12 B30,2013-05-04 06:46:00,
2013-05-04 01:50:00,40.9,24.6,30.08,NNE,22,6.0,17.0,52,0.00,,,0.00,0,LWC V2.10 B1813,2013-05-04 06:50:00,
2013-05-04 01:51:00,40.3,24.5,30.08,North,5,3.0,11.0,53,0.00,,,0.05,,LWC V1.12 B30,2013-05-04 06:51:00,
2013-05-04 01:56:00,40.1,24.8,30.08,North,11,5.0,14.0,54,0.00,,,0.05,,LWC V1.12 B30,2013-05-04 06:56:00,
2013-05-04 02:00:00,40.6,24.8,30.08,North,0,6.0,14.0,53,0.00,,,0.00,0,LWC V2.10 B1813,2013-05-04 07:00:00,
2013-05-04 02:01:00,39.8,25.0,30.08,North,355,5.0,12.0,55,0.00,,,0.06,,LWC V1.12 B30,2013-05-04 07:01:00,
2013-05-04 02:06:00,39.6,24.8,30.08,NE,43,1.0,10.0,55,0.00,,,0.06,,LWC V1.12 B30,2013-05-04 07:06:00,
2013-05-04 02:10:00,40.2,25.3,30.08,NNE,22,6.0,15.0,55,0.00,,,0.00,0,LWC V2.10 B1813,2013-05-04 07:10:00,
2013-05-04 02:11:00,39.4,25.0,30.08,NNE,22,4.0,9.0,56,0.00,,,0.06,,LWC V1.12 B30,2013-05-04 07:11:00,
2013-05-04 02:16:00,39.2,24.8,30.08,NNE,15,1.0,9.0,56,0.00,,,0.06,,LWC V1.12 B30,2013-05-04 07:16:00,
2013-05-04 02:20:00,40.2,25.3,30.08,NNE,22,6.0,15.0,55,0.00,,,0.00,0,LWC V2.10 B1813,2013-05-04 07:20:00,
2013-05-04 02:21:00,39.1,24.7,30.08,NNE,26,5.0,12.0,56,0.00,,,0.06,,LWC V1.12 B30,2013-05-04 07:21:00,
2013-05-04 02:26:00,39.0,25.1,30.08,North,0,6.0,11.0,57,0.00,,,0.06,,LWC V1.12 B30,2013-05-04 07:26:00,
2013-05-04 02:30:00,39.6,25.2,30.08,NNE,22,5.0,16.0,56,0.00,,,0.00,0,LWC V2.10 B1813,2013-05-04 07:30:00,
2013-05-04 02:31:00,39.0,25.1,30.07,NNE,22,2.0,11.0,57,0.00,,,0.07,,LWC V1.12 B30,2013-05-04 07:31:00,
2013-05-04 02:36:00,39.0,25.1,30.07,NNE,27,5.0,10.0,57,0.00,,,0.07,,LWC V1.12 B30,2013-05-04 07:36:00,
2013-05-04 02:40:00,39.1,25.2,30.08,North,0,5.0,12.0,57,0.00,,,0.00,0,LWC V2.10 B1813,2013-05-04 07:40:00,
2013-05-04 02:41:00,38.9,25.0,30.07,NNW,344,3.0,4.0,57,0.00,,,0.07,,LWC V1.12 B30,2013-05-04 07:41:00,
2013-05-04 02:46:00,39.0,25.1,30.07,NW,313,4.0,9.0,57,0.00,,,0.08,,LWC V1.12 B30,2013-05-04 07:46:00,
2013-05-04 02:50:00,39.1,25.2,30.08,North,0,5.0,12.0,57,0.00,,,0.00,0,LWC V2.10 B1813,2013-05-04 07:50:00,
2013-05-04 02:51:00,38.8,24.9,30.07,WNW,302,8.0,10.0,57,0.00,,,0.08,,LWC V1.12 B30,2013-05-04 07:51:00,
2013-05-04 02:56:00,38.6,24.7,30.07,NNW,335,4.0,11.0,57,0.00,,,0.08,,LWC V1.12 B30,2013-05-04 07:56:00,
2013-05-04 03:00:00,39.0,25.1,30.07,NNE,22,5.0,14.0,57,0.00,,,0.00,0,LWC V2.10 B1813,2013-05-04 08:00:00,
2013-05-04 03:01:00,38.4,24.9,30.07,North,355,5.0,11.0,58,0.00,,,0.08,,LWC V1.12 B30,2013-05-04 08:01:00,
2013-05-04 03:06:00,38.3,24.8,30.06,NNW,333,2.0,4.0,58,0.00,,,0.08,,LWC V1.12 B30,2013-05-04 08:06:00,
2013-05-04 03:10:00,38.8,25.3,30.07,NW,315,4.0,12.0,58,0.00,,,0.00,0,LWC V2.10 B1813,2013-05-04 08:10:00,
2013-05-04 03:11:00,38.1,25.1,30.07,NW,304,10.0,12.0,59,0.00,,,0.08,,LWC V1.12 B30,2013-05-04 08:11:00,
2013-05-04 03:16:00,38.0,25.0,30.07,North,349,7.0,14.0,59,0.00,,,0.09,,LWC V1.12 B30,2013-05-04 08:16:00,
2013-05-04 03:20:00,38.8,25.3,30.07,NW,315,4.0,12.0,58,0.00,,,0.00,0,LWC V2.10 B1813,2013-05-04 08:20:00,
2013-05-04 03:21:00,38.0,25.0,30.07,NW,310,10.0,10.0,59,0.00,,,0.09,,LWC V1.12 B30,2013-05-04 08:21:00,
2013-05-04 03:26:00,37.9,24.9,30.06,NNW,334,5.0,10.0,59,0.00,,,0.09,,LWC V1.12 B30,2013-05-04 08:26:00,
2013-05-04 03:30:00,38.2,25.1,30.07,NNW,338,5.0,13.0,59,0.00,,,0.00,0,LWC V2.10 B1813,2013-05-04 08:30:00,
2013-05-04 03:31:00,37.9,24.9,30.06,NNE,15,4.0,9.0,59,0.00,,,0.09,,LWC V1.12 B30,2013-05-04 08:31:00,
2013-05-04 03:36:00,37.9,24.9,30.06,WNW,303,3.0,12.0,59,0.00,,,0.09,,LWC V1.12 B30,2013-05-04 08:36:00,
2013-05-04 03:40:00,38.0,25.0,30.06,NNW,338,6.0,15.0,59,0.00,,,0.00,0,LWC V2.10 B1813,2013-05-04 08:40:00,
2013-05-04 03:41:00,37.8,24.8,30.06,NNW,339,3.0,13.0,59,0.00,,,0.09,,LWC V1.12 B30,2013-05-04 08:41:00,
2013-05-04 03:46:00,37.7,24.7,30.06,NNW,330,11.0,14.0,59,0.00,,,0.10,,LWC V1.12 B30,2013-05-04 08:46:00,
2013-05-04 03:50:00,38.0,25.0,30.06,NNW,338,6.0,15.0,59,0.00,,,0.00,0,LWC V2.10 B1813,2013-05-04 08:50:00,
2013-05-04 03:51:00,37.6,25.0,30.06,NW,313,10.0,11.0,60,0.00,,,0.10,,LWC V1.12 B30,2013-05-04 08:51:00,
2013-05-04 03:56:00,37.4,24.8,30.06,NW,321,5.0,12.0,60,0.00,,,0.10,,LWC V1.12 B30,2013-05-04 08:56:00,
2013-05-04 04:00:00,37.9,24.9,30.06,NW,315,5.0,13.0,59,0.00,,,0.00,0,LWC V2.10 B1813,2013-05-04 09:00:00,
2013-05-04 04:01:00,37.3,24.7,30.06,WNW,284,9.0,14.0,60,0.00,,,0.10,,LWC V1.12 B30,2013-05-04 09:01:00,
2013-05-04 04:06:00,37.2,25.0,30.06,NNW,345,4.0,7.0,61,0.00,,,0.10,,LWC V1.12 B30,2013-05-04 09:06:00,
2013-05-04 04:10:00,37.5,24.9,30.06,NW,315,7.0,16.0,60,0.00,,,0.00,0,LWC V2.10 B1813,2013-05-04 09:10:00,
2013-05-04 04:11:00,37.2,24.6,30.06,NW,315,5.0,10.0,60,0.00,,,0.10,,LWC V1.12 B30,2013-05-04 09:11:00,
2013-05-04 04:16:00,37.3,24.7,30.06,NE,34,5.0,13.0,60,0.00,,,0.10,,LWC V1.12 B30,2013-05-04 09:16:00,
2013-05-04 04:20:00,37.5,24.9,30.06,NW,315,7.0,16.0,60,0.00,,,0.00,0,LWC V2.10 B1813,2013-05-04 09:20:00,
2013-05-04 04:21:00,37.3,24.7,30.06,NNW,334,6.0,16.0,60,0.00,,,0.10,,LWC V1.12 B30,2013-05-04 09:21:00,
2013-05-04 04:26:00,37.4,24.8,30.06,NW,306,4.0,9.0,60,0.00,,,0.10,,LWC V1.12 B30,2013-05-04 09:26:00,
2013-05-04 04:30:00,37.3,24.7,30.06,NW,315,6.0,15.0,60,0.00,,,0.00,0,LWC V2.10 B1813,2013-05-04 09:30:00,
2013-05-04 04:31:00,37.3,25.1,30.06,North,5,3.0,10.0,61,0.00,,,0.10,,LWC V1.12 B30,2013-05-04 09:31:00,
2013-05-04 04:36:00,37.3,25.1,30.06,NW,323,3.0,11.0,61,0.00,,,0.10,,LWC V1.12 B30,2013-05-04 09:36:00,
2013-05-04 04:40:00,37.3,25.1,30.06,NW,315,6.0,16.0,61,0.00,,,0.00,0,LWC V2.10 B1813,2013-05-04 09:40:00,
2013-05-04 04:41:00,37.2,25.0,30.07,NW,325,6.0,12.0,61,0.00,,,0.10,,LWC V1.12 B30,2013-05-04 09:41:00,
2013-05-04 04:46:00,37.2,25.4,30.07,NW,318,5.0,10.0,62,0.00,,,0.11,,LWC V1.12 B30,2013-05-04 09:46:00,
2013-05-04 04:50:00,37.3,25.1,30.06,NW,315,6.0,16.0,61,0.00,,,0.00,0,LWC V2.10 B1813,2013-05-04 09:50:00,
2013-05-04 04:51:00,37.1,25.3,30.07,NNW,330,8.0,16.0,62,0.00,,,0.11,,LWC V1.12 B30,2013-05-04 09:51:00,
2013-05-04 04:56:00,37.1,25.3,30.07,NW,315,6.0,13.0,62,0.00,,,0.11,,LWC V1.12 B30,2013-05-04 09:56:00,
2013-05-04 05:00:00,37.2,25.4,30.07,NW,315,5.0,12.0,62,0.00,,,0.00,0,LWC V2.10 B1813,2013-05-04 10:00:00,
2013-05-04 05:01:00,37.1,25.7,30.07,North,0,2.0,16.0,63,0.00,,,0.11,,LWC V1.12 B30,2013-05-04 10:01:00,
2013-05-04 05:06:00,37.1,25.7,30.07,NNE,21,5.0,16.0,63,0.00,,,0.11,,LWC V1.12 B30,2013-05-04 10:06:00,
2013-05-04 05:10:00,37.1,25.7,30.07,NW,315,7.0,16.0,63,0.00,,,0.00,0,LWC V2.10 B1813,2013-05-04 10:10:00,
2013-05-04 05:11:00,37.0,25.6,30.06,NW,307,6.0,17.0,63,0.00,,,0.11,,LWC V1.12 B30,2013-05-04 10:11:00,
2013-05-04 05:16:00,37.0,25.6,30.06,North,350,1.0,7.0,63,0.00,,,0.11,,LWC V1.12 B30,2013-05-04 10:16:00,
2013-05-04 05:20:00,37.1,25.7,30.07,NW,315,7.0,16.0,63,0.00,,,0.00,0,LWC V2.10 B1813,2013-05-04 10:20:00,
2013-05-04 05:21:00,37.0,26.0,30.06,NW,318,7.0,14.0,64,0.00,,,0.11,,LWC V1.12 B30,2013-05-04 10:21:00,
2013-05-04 05:26:00,37.0,26.0,30.06,NW,318,9.0,12.0,64,0.00,,,0.11,,LWC V1.12 B30,2013-05-04 10:26:00,
2013-05-04 05:30:00,37.1,25.7,30.06,NW,315,7.0,17.0,63,0.00,,,0.00,0,LWC V2.10 B1813,2013-05-04 10:30:00,
2013-05-04 05:31:00,36.9,25.9,30.06,NW,314,5.0,12.0,64,0.00,,,0.12,,LWC V1.12 B30,2013-05-04 10:31:00,
2013-05-04 05:36:00,36.9,25.9,30.06,NW,325,13.0,17.0,64,0.00,,,0.12,,LWC V1.12 B30,2013-05-04 10:36:00,
2013-05-04 05:40:00,37.0,26.0,30.06,NW,315,6.0,14.0,64,0.00,,,0.00,0,LWC V2.10 B1813,2013-05-04 10:40:00,
2013-05-04 05:41:00,36.8,25.8,30.06,NNE,20,6.0,10.0,64,0.00,,,0.12,,LWC V1.12 B30,2013-05-04 10:41:00,
2013-05-04 05:46:00,36.9,26.2,30.05,North,11,7.0,13.0,65,0.00,,,0.12,,LWC V1.12 B30,2013-05-04 10:46:00,
2013-05-04 05:50:00,37.0,26.0,30.06,NW,315,6.0,14.0,64,0.00,,,0.00,0,LWC V2.10 B1813,2013-05-04 10:50:00,
2013-05-04 05:51:00,37.0,26.3,30.06,North,355,9.0,13.0,65,0.00,,,0.12,,LWC V1.12 B30,2013-05-04 10:51:00,
2013-05-04 05:56:00,37.0,26.3,30.06,NW,308,3.0,12.0,65,0.00,,,0.12,,LWC V1.12 B30,2013-05-04 10:56:00,
2013-05-04 06:00:00,36.9,26.3,30.05,NNW,338,6.0,20.0,65,0.00,,,0.00,0,LWC V2.10 B1813,2013-05-04 11:00:00,
2013-05-04 06:01:00,37.0,26.3,30.06,North,349,5.0,11.0,65,0.00,,,0.12,,LWC V1.12 B30,2013-05-04 11:01:00,
2013-05-04 06:06:00,37.0,26.3,30.06,NNW,335,3.0,12.0,65,0.00,,,0.12,,LWC V1.12 B30,2013-05-04 11:06:00,
2013-05-04 06:10:00,37.0,26.3,30.06,NW,315,6.0,14.0,65,0.00,,,0.00,0,LWC V2.10 B1813,2013-05-04 11:10:00,
2013-05-04 06:11:00,37.0,26.7,30.06,NNW,345,5.0,9.0,66,0.00,,,0.12,,LWC V1.12 B30,2013-05-04 11:11:00,
2013-05-04 06:16:00,37.2,26.5,30.07,NNW,346,3.0,14.0,65,0.00,,,0.12,,LWC V1.12 B30,2013-05-04 11:16:00,
2013-05-04 06:20:00,37.0,26.3,30.06,NW,315,6.0,14.0,65,0.00,,,0.00,0,LWC V2.10 B1813,2013-05-04 11:20:00,
2013-05-04 06:21:00,37.3,26.6,30.07,NNW,337,5.0,16.0,65,0.00,,,0.12,,LWC V1.12 B30,2013-05-04 11:21:00,
2013-05-04 06:26:00,37.5,26.8,30.07,North,0,5.0,12.0,65,0.00,,,0.12,,LWC V1.12 B30,2013-05-04 11:26:00,
2013-05-04 06:30:00,37.0,26.3,30.06,North,0,5.0,16.0,65,0.00,,,0.00,0,LWC V2.10 B1813,2013-05-04 11:30:00,
2013-05-04 06:31:00,37.7,27.0,30.07,NNE,31,6.0,17.0,65,0.00,,,0.13,,LWC V1.12 B30,2013-05-04 11:31:00,
2013-05-04 06:36:00,37.9,26.8,30.07,NNE,24,11.0,11.0,64,0.00,,,0.13,,LWC V1.12 B30,2013-05-04 11:36:00,
2013-05-04 06:40:00,37.4,26.7,30.07,North,0,7.0,17.0,65,0.00,,,0.00,0,LWC V2.10 B1813,2013-05-04 11:40:00,
2013-05-04 06:41:00,38.0,26.9,30.07,North,9,11.0,11.0,64,0.00,,,0.13,,LWC V1.12 B30,2013-05-04 11:41:00,
2013-05-04 06:46:00,38.1,27.0,30.07,NW,319,3.0,12.0,64,0.00,,,0.13,,LWC V1.12 B30,2013-05-04 11:46:00,
2013-05-04 06:50:00,37.4,26.7,30.07,North,0,7.0,17.0,65,0.00,,,0.00,0,LWC V2.10 B1813,2013-05-04 11:50:00,
2013-05-04 06:51:00,38.1,27.0,30.07,North,0,9.0,12.0,64,0.00,,,0.13,,LWC V1.12 B30,2013-05-04 11:51:00,
2013-05-04 06:56:00,38.1,27.0,30.08,North,0,9.0,16.0,64,0.00,,,0.13,,LWC V1.12 B30,2013-05-04 11:56:00,
2013-05-04 07:00:00,37.9,26.8,30.07,North,0,6.0,16.0,64,0.00,,,0.00,0,LWC V2.10 B1813,2013-05-04 12:00:00,
2013-05-04 07:01:00,38.1,27.0,30.07,NNW,345,9.0,12.0,64,0.00,,,0.14,,LWC V1.12 B30,2013-05-04 12:01:00,
2013-05-04 07:06:00,38.2,26.7,30.07,NW,311,8.0,18.0,63,0.00,,,0.14,,LWC V1.12 B30,2013-05-04 12:06:00,
2013-05-04 07:10:00,38.1,27.0,30.07,North,0,7.0,16.0,64,0.00,,,0.00,0,LWC V2.10 B1813,2013-05-04 12:10:00,
2013-05-04 07:11:00,38.2,27.1,30.07,NNE,21,13.0,14.0,64,0.00,,,0.14,,LWC V1.12 B30,2013-05-04 12:11:00,
2013-05-04 07:16:00,38.4,26.9,30.08,WNW,298,13.0,20.0,63,0.00,,,0.14,,LWC V1.12 B30,2013-05-04 12:16:00,
2013-05-04 07:20:00,38.1,27.0,30.07,North,0,7.0,16.0,64,0.00,,,0.00,0,LWC V2.10 B1813,2013-05-04 12:20:00,
2013-05-04 07:21:00,38.5,27.0,30.08,North,10,10.0,14.0,63,0.00,,,0.14,,LWC V1.12 B30,2013-05-04 12:21:00,
2013-05-04 07:26:00,38.6,26.7,30.07,NNE,17,14.0,21.0,62,0.00,,,0.14,,LWC V1.12 B30,2013-05-04 12:26:00,
2013-05-04 07:30:00,38.2,26.7,30.08,NNE,22,9.0,19.0,63,0.00,,,0.00,0,LWC V2.10 B1813,2013-05-04 12:30:00,
2013-05-04 07:31:00,38.7,26.8,30.08,NE,42,7.0,19.0,62,0.00,,,0.14,,LWC V1.12 B30,2013-05-04 12:31:00,
2013-05-04 07:35:00,38.9,27.0,30.08,North,5,5.0,12.0,62,0.00,,,0.14,,LWC V1.12 B30,2013-05-04 12:35:00,
2013-05-04 07:36:00,38.9,27.0,30.08,North,0,5.0,12.0,62,0.00,,,0.14,,LWC V1.12 B30,2013-05-04 12:36:00,
2013-05-04 07:40:00,38.5,26.6,30.07,NNE,22,10.0,21.0,62,0.00,,,0.00,0,LWC V2.10 B1813,2013-05-04 12:40:00,
2013-05-04 07:41:00,39.0,26.7,30.07,NE,34,7.0,15.0,61,0.00,,,0.14,,LWC V1.12 B30,2013-05-04 12:41:00,
2013-05-04 07:46:00,39.0,26.3,30.08,NNE,32,6.0,24.0,60,0.00,,,0.15,,LWC V1.12 B30,2013-05-04 12:46:00,
2013-05-04 07:50:00,38.5,26.6,30.07,NNE,22,10.0,21.0,62,0.00,,,0.00,0,LWC V2.10 B1813,2013-05-04 12:50:00,
2013-05-04 07:51:00,39.0,26.7,30.08,NNE,13,12.0,22.0,61,0.00,,,0.15,,LWC V1.12 B30,2013-05-04 12:51:00,
2013-05-04 07:56:00,38.9,26.2,30.08,NE,34,16.0,18.0,60,0.00,,,0.15,,LWC V1.12 B30,2013-05-04 12:56:00,
2013-05-04 08:00:00,38.9,26.6,30.08,NNE,22,8.0,25.0,61,0.00,,,0.00,0,LWC V2.10 B1813,2013-05-04 13:00:00,
2013-05-04 08:01:00,39.0,26.3,30.07,NNE,25,6.0,16.0,60,0.00,,,0.15,,LWC V1.12 B30,2013-05-04 13:01:00,
2013-05-04 08:06:00,39.0,26.3,30.07,North,5,7.0,20.0,60,0.00,,,0.15,,LWC V1.12 B30,2013-05-04 13:06:00,
2013-05-04 08:10:00,39.0,26.3,30.07,NNE,22,10.0,22.0,60,0.00,,,0.00,0,LWC V2.10 B1813,2013-05-04 13:10:00,
2013-05-04 08:11:00,39.0,26.3,30.07,NNW,327,11.0,18.0,60,0.00,,,0.15,,LWC V1.12 B30,2013-05-04 13:11:00,
2013-05-04 08:16:00,39.0,25.9,30.08,NNE,23,16.0,22.0,59,0.00,,,0.16,,LWC V1.12 B30,2013-05-04 13:16:00,
2013-05-04 08:20:00,39.0,26.3,30.07,NNE,22,10.0,22.0,60,0.00,,,0.00,0,LWC V2.10 B1813,2013-05-04 13:20:00,
2013-05-04 08:21:00,39.1,26.4,30.08,NNE,20,12.0,18.0,60,0.00,,,0.16,,LWC V1.12 B30,2013-05-04 13:21:00,
2013-05-04 08:26:00,39.1,26.0,30.08,ENE,62,5.0,18.0,59,0.00,,,0.16,,LWC V1.12 B30,2013-05-04 13:26:00,
2013-05-04 08:30:00,39.0,25.9,30.07,NNE,22,10.0,22.0,59,0.00,,,0.00,0,LWC V2.10 B1813,2013-05-04 13:30:00,
2013-05-04 08:31:00,39.1,26.0,30.07,NNE,18,9.0,20.0,59,0.00,,,0.16,,LWC V1.12 B30,2013-05-04 13:31:00,
2013-05-04 08:36:00,39.0,25.9,30.07,North,0,15.0,24.0,59,0.00,,,0.16,,LWC V1.12 B30,2013-05-04 13:36:00,
2013-05-04 08:40:00,39.1,26.0,30.07,NNE,22,9.0,24.0,59,0.00,,,0.00,0,LWC V2.10 B1813,2013-05-04 13:40:00,
2013-05-04 08:41:00,39.1,26.4,30.07,NNE,14,22.0,22.0,60,0.00,,,0.16,,LWC V1.12 B30,2013-05-04 13:41:00,
2013-05-04 08:46:00,39.0,25.9,30.07,North,355,16.0,24.0,59,0.00,,,0.17,,LWC V1.12 B30,2013-05-04 13:46:00,
2013-05-04 08:50:00,39.1,26.0,30.07,NNE,22,9.0,24.0,59,0.00,,,0.00,0,LWC V2.10 B1813,2013-05-04 13:50:00,
2013-05-04 08:51:00,39.1,26.0,30.07,NNW,342,6.0,20.0,59,0.00,,,0.17,,LWC V1.12 B30,2013-05-04 13:51:00,
2013-05-04 08:56:00,39.1,26.0,30.08,NNE,24,10.0,22.0,59,0.00,,,0.17,,LWC V1.12 B30,2013-05-04 13:56:00,
2013-05-04 09:00:00,39.0,25.9,30.07,NNE,22,11.0,24.0,59,0.00,,,0.00,0,LWC V2.10 B1813,2013-05-04 14:00:00,
2013-05-04 09:01:00,39.1,26.0,30.08,North,0,6.0,24.0,59,0.00,,,0.17,,LWC V1.12 B30,2013-05-04 14:01:00,
2013-05-04 09:06:00,39.2,26.1,30.08,North,0,9.0,21.0,59,0.00,,,0.17,,LWC V1.12 B30,2013-05-04 14:06:00,
2013-05-04 09:10:00,39.1,26.0,30.08,NNE,22,11.0,26.0,59,0.00,,,0.00,0,LWC V2.10 B1813,2013-05-04 14:10:00,
2013-05-04 09:11:00,39.2,26.5,30.08,North,0,14.0,19.0,60,0.00,,,0.17,,LWC V1.12 B30,2013-05-04 14:11:00,
2013-05-04 09:16:00,39.5,26.8,30.08,NNW,333,15.0,17.0,60,0.00,,,0.18,,LWC V1.12 B30,2013-05-04 14:16:00,
2013-05-04 09:20:00,39.1,26.0,30.08,NNE,22,11.0,26.0,59,0.00,,,0.00,0,LWC V2.10 B1813,2013-05-04 14:20:00,
2013-05-04 09:21:00,39.5,26.8,30.08,NE,36,11.0,15.0,60,0.00,,,0.18,,LWC V1.12 B30,2013-05-04 14:21:00,
2013-05-04 09:26:00,39.7,27.0,30.08,NNW,346,7.0,17.0,60,0.00,,,0.18,,LWC V1.12 B30,2013-05-04 14:26:00,
2013-05-04 09:30:00,39.2,26.5,30.07,NNE,22,10.0,24.0,60,0.00,,,0.00,0,LWC V2.10 B1813,2013-05-04 14:30:00,
2013-05-04 09:31:00,40.0,26.8,30.08,NNE,23,19.0,23.0,59,0.00,,,0.18,,LWC V1.12 B30,2013-05-04 14:31:00,
2013-05-04 09:36:00,39.9,26.8,30.08,NNE,30,16.0,24.0,59,0.00,,,0.18,,LWC V1.12 B30,2013-05-04 14:36:00,
2013-05-04 09:40:00,39.6,26.5,30.08,NNE,22,9.0,22.0,59,0.00,,,0.00,0,LWC V2.10 B1813,2013-05-04 14:40:00,
2013-05-04 09:41:00,40.1,26.9,30.08,NNE,13,6.0,18.0,59,0.00,,,0.18,,LWC V1.12 B30,2013-05-04 14:41:00,
2013-05-04 09:46:00,40.3,27.1,30.08,NNW,340,8.0,23.0,59,0.00,,,0.18,,LWC V1.12 B30,2013-05-04 14:46:00,
2013-05-04 09:50:00,39.6,26.5,30.08,NNE,22,9.0,22.0,59,0.00,,,0.00,0,LWC V2.10 B1813,2013-05-04 14:50:00,
2013-05-04 09:51:00,40.5,27.7,30.07,NE,40,8.0,20.0,60,0.00,,,0.18,,LWC V1.12 B30,2013-05-04 14:51:00,
2013-05-04 09:56:00,41.1,27.9,30.07,NNW,331,6.0,17.0,59,0.00,,,0.18,,LWC V1.12 B30,2013-05-04 14:56:00,
2013-05-04 10:00:00,40.0,26.9,30.08,NNE,22,11.0,24.0,59,0.00,,,0.00,0,LWC V2.10 B1813,2013-05-04 15:00:00,
2013-05-04 10:01:00,41.2,27.6,30.08,NNE,24,17.0,23.0,58,0.00,,,0.18,,LWC V1.12 B30,2013-05-04 15:01:00,
2013-05-04 10:06:00,41.3,27.7,30.07,NW,321,7.0,24.0,58,0.00,,,0.18,,LWC V1.12 B30,2013-05-04 15:06:00,
2013-05-04 10:10:00,40.7,27.1,30.08,NNE,22,11.0,23.0,58,0.00,,,0.00,0,LWC V2.10 B1813,2013-05-04 15:10:00,
2013-05-04 10:11:00,41.4,28.6,30.07,North,0,18.0,21.0,60,0.00,,,0.18,,LWC V1.12 B30,2013-05-04 15:11:00,
2013-05-04 10:16:00,41.4,28.6,30.08,North,355,9.0,17.0,60,0.00,,,0.19,,LWC V1.12 B30,2013-05-04 15:16:00,
2013-05-04 10:20:00,40.7,27.1,30.08,NNE,22,11.0,23.0,58,0.00,,,0.00,0,LWC V2.10 B1813,2013-05-04 15:20:00,
2013-05-04 10:21:00,41.9,28.6,30.08,NE,38,8.0,27.0,59,0.00,,,0.19,,LWC V1.12 B30,2013-05-04 15:21:00,
2013-05-04 10:26:00,42.5,29.6,30.09,NNE,25,13.0,24.0,60,0.00,,,0.19,,LWC V1.12 B30,2013-05-04 15:26:00,
2013-05-04 10:30:00,41.3,28.5,30.08,NNE,22,12.0,29.0,60,0.00,,,0.00,0,LWC V2.10 B1813,2013-05-04 15:30:00,
2013-05-04 10:31:00,42.8,29.1,30.08,NNE,15,4.0,22.0,58,0.00,,,0.19,,LWC V1.12 B30,2013-05-04 15:31:00,
2013-05-04 10:36:00,42.7,29.0,30.08,NW,315,10.0,22.0,58,0.00,,,0.19,,LWC V1.12 B30,2013-05-04 15:36:00,
2013-05-04 10:40:00,42.0,28.7,30.08,NNE,22,10.0,27.0,59,0.00,,,0.00,0,LWC V2.10 B1813,2013-05-04 15:40:00,
2013-05-04 10:41:00,42.5,28.8,30.09,NNE,14,18.0,30.0,58,0.00,,,0.19,,LWC V1.12 B30,2013-05-04 15:41:00,
2013-05-04 10:46:00,42.3,28.6,30.08,NNE,28,13.0,25.0,58,0.00,,,0.21,,LWC V1.12 B30,2013-05-04 15:46:00,
2013-05-04 10:50:00,42.0,28.7,30.08,NNE,22,10.0,27.0,59,0.00,,,0.00,0,LWC V2.10 B1813,2013-05-04 15:50:00,
2013-05-04 10:51:00,42.3,28.6,30.08,NNE,18,12.0,19.0,58,0.00,,,0.21,,LWC V1.12 B30,2013-05-04 15:51:00,
2013-05-04 10:56:00,42.4,28.3,30.08,NE,38,10.0,25.0,57,0.00,,,0.21,,LWC V1.12 B30,2013-05-04 15:56:00,
2013-05-04 11:00:00,42.6,28.9,30.09,NNE,22,12.0,30.0,58,0.00,,,0.00,0,LWC V2.10 B1813,2013-05-04 16:00:00,
2013-05-04 11:01:00,42.6,28.9,30.08,NE,40,23.0,28.0,58,0.00,,,0.21,,LWC V1.12 B30,2013-05-04 16:01:00,
2013-05-04 11:06:00,43.1,28.9,30.08,NNE,15,12.0,20.0,57,0.00,,,0.21,,LWC V1.12 B30,2013-05-04 16:06:00,
2013-05-04 11:10:00,42.3,28.6,30.08,NNE,22,12.0,26.0,58,0.00,,,0.00,0,LWC V2.10 B1813,2013-05-04 16:10:00,
2013-05-04 11:11:00,43.1,28.5,30.08,North,355,4.0,23.0,56,0.00,,,0.21,,LWC V1.12 B30,2013-05-04 16:11:00,
2013-05-04 11:16:00,43.7,29.5,30.08,North,0,15.0,29.0,57,0.00,,,0.21,,LWC V1.12 B30,2013-05-04 16:16:00,
2013-05-04 11:20:00,42.3,28.6,30.08,NNE,22,12.0,26.0,58,0.00,,,0.00,0,LWC V2.10 B1813,2013-05-04 16:20:00,
2013-05-04 11:21:00,44.1,30.3,30.09,NNE,19,19.0,19.0,58,0.00,,,0.21,,LWC V1.12 B30,2013-05-04 16:21:00,
2013-05-04 11:26:00,44.0,29.8,30.09,NE,45,9.0,19.0,57,0.00,,,0.21,,LWC V1.12 B30,2013-05-04 16:26:00,
2013-05-04 11:30:00,43.0,29.2,30.08,NNE,22,12.0,28.0,58,0.00,,,0.00,0,LWC V2.10 B1813,2013-05-04 16:30:00,
2013-05-04 11:31:00,43.6,29.4,30.09,NE,37,15.0,23.0,57,0.00,,,0.21,,LWC V1.12 B30,2013-05-04 16:31:00,
2013-05-04 11:36:00,43.8,30.4,30.09,NE,37,6.0,15.0,59,0.00,,,0.21,,LWC V1.12 B30,2013-05-04 16:36:00,
2013-05-04 11:40:00,43.9,29.7,30.09,NNE,22,12.0,29.0,57,0.00,,,0.00,0,LWC V2.10 B1813,2013-05-04 16:40:00,
2013-05-04 11:41:00,44.6,30.3,30.09,NW,318,23.0,24.0,57,0.00,,,0.21,,LWC V1.12 B30,2013-05-04 16:41:00,
2013-05-04 11:46:00,44.2,30.4,30.09,NNW,344,12.0,18.0,58,0.00,,,0.21,,LWC V1.12 B30,2013-05-04 16:46:00,
2013-05-04 11:50:00,43.9,29.7,30.09,NNE,22,12.0,29.0,57,0.00,,,0.00,0,LWC V2.10 B1813,2013-05-04 16:50:00,
2013-05-04 11:51:00,44.1,30.3,30.10,North,351,15.0,21.0,58,0.00,,,0.21,,LWC V1.12 B30,2013-05-04 16:51:00,
2013-05-04 11:56:00,44.4,30.6,30.10,NE,55,8.0,23.0,58,0.00,,,0.21,,LWC V1.12 B30,2013-05-04 16:56:00,
2013-05-04 12:00:00,44.0,30.2,30.09,NNE,22,11.0,25.0,58,0.00,,,0.00,0,LWC V2.10 B1813,2013-05-04 17:00:00,
2013-05-04 12:01:00,44.7,30.8,30.09,NNE,29,14.0,23.0,58,0.00,,,0.21,,LWC V1.12 B30,2013-05-04 17:01:00,
2013-05-04 12:06:00,44.6,30.7,30.09,North,350,13.0,24.0,58,0.00,,,0.21,,LWC V1.12 B30,2013-05-04 17:06:00,
2013-05-04 12:10:00,44.3,30.5,30.09,NE,45,11.0,25.0,58,0.00,,,0.00,0,LWC V2.10 B1813,2013-05-04 17:10:00,
2013-05-04 12:11:00,44.6,30.7,30.09,NNE,28,13.0,26.0,58,0.00,,,0.21,,LWC V1.12 B30,2013-05-04 17:11:00,
2013-05-04 12:16:00,45.0,31.1,30.09,NNE,25,7.0,16.0,58,0.00,,,0.22,,LWC V1.12 B30,2013-05-04 17:16:00,
2013-05-04 12:20:00,44.3,30.5,30.09,NE,45,11.0,25.0,58,0.00,,,0.00,0,LWC V2.10 B1813,2013-05-04 17:20:00,
2013-05-04 12:21:00,45.0,31.1,30.09,NE,36,7.0,21.0,58,0.00,,,0.22,,LWC V1.12 B30,2013-05-04 17:21:00,
2013-05-04 12:26:00,45.0,31.5,30.09,NE,39,10.0,17.0,59,0.00,,,0.22,,LWC V1.12 B30,2013-05-04 17:26:00,
2013-05-04 12:30:00,44.6,31.2,30.09,NNE,22,12.0,27.0,59,0.00,,,0.00,0,LWC V2.10 B1813,2013-05-04 17:30:00,
2013-05-04 12:31:00,44.9,31.5,30.09,NNE,19,17.0,23.0,59,0.00,,,0.22,,LWC V1.12 B30,2013-05-04 17:31:00,
2013-05-04 12:36:00,45.0,31.5,30.09,NNE,25,13.0,18.0,59,0.00,,,0.22,,LWC V1.12 B30,2013-05-04 17:36:00,
2013-05-04 12:40:00,45.0,31.5,30.09,NNE,22,11.0,25.0,59,0.00,,,0.00,0,LWC V2.10 B1813,2013-05-04 17:40:00,
2013-05-04 12:41:00,45.1,31.6,30.09,NNE,24,14.0,15.0,59,0.00,,,0.22,,LWC V1.12 B30,2013-05-04 17:41:00,
2013-05-04 12:46:00,45.9,32.0,30.09,NE,42,14.0,20.0,58,0.00,,,0.23,,LWC V1.12 B30,2013-05-04 17:46:00,
2013-05-04 12:50:00,45.0,31.5,30.09,NNE,22,11.0,25.0,59,0.00,,,0.00,0,LWC V2.10 B1813,2013-05-04 17:50:00,
2013-05-04 12:51:00,45.4,31.5,30.10,NE,48,7.0,25.0,58,0.00,,,0.23,,LWC V1.12 B30,2013-05-04 17:51:00,
2013-05-04 12:56:00,45.4,31.9,30.10,NE,34,11.0,20.0,59,0.00,,,0.23,,LWC V1.12 B30,2013-05-04 17:56:00,
2013-05-04 13:00:00,45.1,31.6,30.09,NNE,22,11.0,26.0,59,0.00,,,0.00,0,LWC V2.10 B1813,2013-05-04 18:00:00,
2013-05-04 13:01:00,44.9,31.5,30.10,ENE,66,10.0,19.0,59,0.00,,,0.23,,LWC V1.12 B30,2013-05-04 18:01:00,
2013-05-04 13:06:00,45.0,32.0,30.10,NE,36,10.0,16.0,60,0.00,,,0.23,,LWC V1.12 B30,2013-05-04 18:06:00,
2013-05-04 13:10:00,45.5,31.6,30.10,NE,45,11.0,27.0,58,0.00,,,0.00,0,LWC V2.10 B1813,2013-05-04 18:10:00,
2013-05-04 13:11:00,45.2,32.1,30.10,NE,35,13.0,13.0,60,0.00,,,0.23,,LWC V1.12 B30,2013-05-04 18:11:00,
2013-05-04 13:16:00,45.2,32.1,30.10,NE,39,6.0,18.0,60,0.00,,,0.23,,LWC V1.12 B30,2013-05-04 18:16:00,
2013-05-04 13:20:00,45.5,31.6,30.10,NE,45,11.0,27.0,58,0.00,,,0.00,0,LWC V2.10 B1813,2013-05-04 18:20:00,
2013-05-04 13:21:00,45.1,31.6,30.10,NNE,19,15.0,21.0,59,0.00,,,0.23,,LWC V1.12 B30,2013-05-04 18:21:00,
2013-05-04 13:26:00,44.8,32.2,30.10,NE,44,14.0,14.0,61,0.00,,,0.23,,LWC V1.12 B30,2013-05-04 18:26:00,
2013-05-04 13:30:00,45.0,32.0,30.10,NE,45,10.0,23.0,60,0.00,,,0.00,0,LWC V2.10 B1813,2013-05-04 18:30:00,
2013-05-04 13:31:00,44.5,31.9,30.10,NNE,22,14.0,26.0,61,0.00,,,0.23,,LWC V1.12 B30,2013-05-04 18:31:00,
2013-05-04 13:36:00,44.5,32.3,30.10,NNE,33,6.0,15.0,62,0.00,,,0.23,,LWC V1.12 B30,2013-05-04 18:36:00,
2013-05-04 13:40:00,45.0,32.0,30.10,NE,45,10.0,23.0,60,0.00,,,0.00,0,LWC V2.10 B1813,2013-05-04 18:40:00,
2013-05-04 13:41:00,44.6,32.4,30.09,ENE,57,6.0,23.0,62,0.00,,,0.23,,LWC V1.12 B30,2013-05-04 18:41:00,
2013-05-04 13:46:00,44.5,32.3,30.09,NNE,31,9.0,21.0,62,0.00,,,0.23,,LWC V1.12 B30,2013-05-04 18:46:00,
2013-05-04 13:50:00,45.0,32.0,30.10,NNE,22,10.0,21.0,60,0.00,,,0.00,0,LWC V2.10 B1813,2013-05-04 18:50:00,
2013-05-04 13:51:00,44.8,33.0,30.10,NNW,348,2.0,11.0,63,0.00,,,0.23,,LWC V1.12 B30,2013-05-04 18:51:00,
2013-05-04 13:56:00,44.9,32.7,30.10,North,355,5.0,18.0,62,0.00,,,0.23,,LWC V1.12 B30,2013-05-04 18:56:00,
2013-05-04 14:00:00,44.6,32.4,30.09,NNE,22,10.0,26.0,62,0.00,,,0.00,0,LWC V2.10 B1813,2013-05-04 19:00:00,
2013-05-04 14:01:00,44.9,32.7,30.10,NNE,13,15.0,22.0,62,0.00,,,0.23,,LWC V1.12 B30,2013-05-04 19:01:00,
2013-05-04 14:06:00,44.4,32.6,30.10,NNE,12,17.0,19.0,63,0.00,,,0.23,,LWC V1.12 B30,2013-05-04 19:06:00,
2013-05-04 14:10:00,44.6,32.4,30.09,NNE,22,10.0,26.0,62,0.00,,,0.00,0,LWC V2.10 B1813,2013-05-04 19:10:00,
2013-05-04 14:11:00,44.3,32.5,30.11,NE,40,10.0,18.0,63,0.00,,,0.23,,LWC V1.12 B30,2013-05-04 19:11:00,
2013-05-04 14:16:00,44.2,32.8,30.11,NE,39,4.0,18.0,64,0.00,,,0.23,,LWC V1.12 B30,2013-05-04 19:16:00,
2013-05-04 14:20:00,44.8,33.0,30.10,NNE,22,8.0,21.0,63,0.00,,,0.00,0,LWC V2.10 B1813,2013-05-04 19:20:00,
2013-05-04 14:21:00,44.1,32.7,30.11,NNE,22,6.0,21.0,64,0.00,,,0.23,,LWC V1.12 B30,2013-05-04 19:21:00,
2013-05-04 14:26:00,44.2,32.8,30.12,NNE,14,10.0,15.0,64,0.00,,,0.23,,LWC V1.12 B30,2013-05-04 19:26:00,
2013-05-04 14:30:00,44.5,32.7,30.10,NNE,22,10.0,23.0,63,0.00,,,0.00,0,LWC V2.10 B1813,2013-05-04 19:30:00,
2013-05-04 14:31:00,44.3,32.9,30.12,NNE,24,7.0,15.0,64,0.00,,,0.23,,LWC V1.12 B30,2013-05-04 19:31:00,
2013-05-04 14:36:00,44.7,33.3,30.12,NNE,17,6.0,17.0,64,0.00,,,0.23,,LWC V1.12 B30,2013-05-04 19:36:00,
2013-05-04 14:40:00,44.2,32.8,30.12,NNE,22,10.0,21.0,64,0.00,,,0.00,0,LWC V2.10 B1813,2013-05-04 19:40:00,
2013-05-04 14:41:00,45.0,33.6,30.12,NNE,20,3.0,17.0,64,0.00,,,0.23,,LWC V1.12 B30,2013-05-04 19:41:00,
2013-05-04 14:46:00,45.0,32.8,30.12,NE,34,9.0,16.0,62,0.00,,,0.23,,LWC V1.12 B30,2013-05-04 19:46:00,
2013-05-04 14:50:00,44.2,32.8,30.12,NNE,22,10.0,21.0,64,0.00,,,0.00,0,LWC V2.10 B1813,2013-05-04 19:50:00,
2013-05-04 14:51:00,44.9,33.1,30.11,NNE,15,6.0,16.0,63,0.00,,,0.23,,LWC V1.12 B30,2013-05-04 19:51:00,
2013-05-04 14:56:00,45.0,33.6,30.11,NNE,26,3.0,13.0,64,0.00,,,0.23,,LWC V1.12 B30,2013-05-04 19:56:00,
2013-05-04 15:00:00,44.7,32.5,30.12,NNE,22,7.0,17.0,62,0.00,,,0.00,0,LWC V2.10 B1813,2013-05-04 20:00:00,
2013-05-04 15:01:00,45.0,33.2,30.11,NNE,32,16.0,20.0,63,0.00,,,0.23,,LWC V1.12 B30,2013-05-04 20:01:00,
2013-05-04 15:06:00,44.8,33.4,30.11,NNE,27,5.0,17.0,64,0.00,,,0.23,,LWC V1.12 B30,2013-05-04 20:06:00,
2013-05-04 15:10:00,45.0,33.2,30.11,NNE,22,8.0,20.0,63,0.00,,,0.00,0,LWC V2.10 B1813,2013-05-04 20:10:00,
2013-05-04 15:11:00,45.0,33.6,30.11,NE,38,11.0,20.0,64,0.00,,,0.23,,LWC V1.12 B30,2013-05-04 20:11:00,
2013-05-04 15:16:00,45.0,33.2,30.11,NNE,17,17.0,18.0,63,0.00,,,0.23,,LWC V1.12 B30,2013-05-04 20:16:00,
2013-05-04 15:20:00,45.0,33.2,30.11,NNE,22,8.0,20.0,63,0.00,,,0.00,0,LWC V2.10 B1813,2013-05-04 20:20:00,
2013-05-04 15:21:00,45.1,33.7,30.11,NNE,28,6.0,19.0,64,0.00,,,0.23,,LWC V1.12 B30,2013-05-04 20:21:00,
2013-05-04 15:26:00,45.3,33.8,30.11,North,11,10.0,18.0,64,0.00,,,0.23,,LWC V1.12 B30,2013-05-04 20:26:00,
2013-05-04 15:30:00,44.9,33.5,30.11,NNE,22,10.0,23.0,64,0.00,,,0.00,0,LWC V2.10 B1813,2013-05-04 20:30:00,
2013-05-04 15:31:00,45.5,34.0,30.11,NE,36,11.0,18.0,64,0.00,,,0.23,,LWC V1.12 B30,2013-05-04 20:31:00,
2013-05-04 15:36:00,45.5,33.6,30.11,NNE,13,6.0,19.0,63,0.00,,,0.23,,LWC V1.12 B30,2013-05-04 20:36:00,
2013-05-04 15:40:00,45.2,33.4,30.11,NNE,22,10.0,22.0,63,0.00,,,0.00,0,LWC V2.10 B1813,2013-05-04 20:40:00,
2013-05-04 15:41:00,45.2,33.4,30.11,NNW,338,12.0,18.0,63,0.00,,,0.23,,LWC V1.12 B30,2013-05-04 20:41:00,
2013-05-04 15:46:00,45.5,34.0,30.11,North,355,17.0,23.0,64,0.00,,,0.23,,LWC V1.12 B30,2013-05-04 20:46:00,
2013-05-04 15:50:00,45.2,33.4,30.11,NNE,22,10.0,22.0,63,0.00,,,0.00,0,LWC V2.10 B1813,2013-05-04 20:50:00,
2013-05-04 15:51:00,45.3,33.5,30.10,NNE,18,14.0,19.0,63,0.00,,,0.23,,LWC V1.12 B30,2013-05-04 20:51:00,
2013-05-04 15:56:00,45.5,33.6,30.11,NNE,25,4.0,11.0,63,0.00,,,0.23,,LWC V1.12 B30,2013-05-04 20:56:00,
2013-05-04 16:00:00,45.4,33.9,30.11,NNE,22,9.0,22.0,64,0.00,,,0.00,0,LWC V2.10 B1813,2013-05-04 21:00:00,
2013-05-04 16:01:00,45.6,34.1,30.11,North,355,15.0,19.0,64,0.00,,,0.23,,LWC V1.12 B30,2013-05-04 21:01:00,
2013-05-04 16:06:00,45.5,34.0,30.11,North,355,10.0,15.0,64,0.00,,,0.23,,LWC V1.12 B30,2013-05-04 21:06:00,
2013-05-04 16:10:00,45.5,34.0,30.11,NNE,22,9.0,23.0,64,0.00,,,0.00,0,LWC V2.10 B1813,2013-05-04 21:10:00,
2013-05-04 16:11:00,45.6,34.1,30.11,North,350,4.0,16.0,64,0.00,,,0.23,,LWC V1.12 B30,2013-05-04 21:11:00,
2013-05-04 16:16:00,45.3,33.8,30.11,NNE,27,10.0,11.0,64,0.00,,,0.23,,LWC V1.12 B30,2013-05-04 21:16:00,
2013-05-04 16:20:00,45.5,34.0,30.11,NNE,22,9.0,23.0,64,0.00,,,0.00,0,LWC V2.10 B1813,2013-05-04 21:20:00,
2013-05-04 16:21:00,45.2,33.8,30.11,NNW,348,8.0,19.0,64,0.00,,,0.23,,LWC V1.12 B30,2013-05-04 21:21:00,
2013-05-04 16:26:00,45.4,34.3,30.11,NNE,16,3.0,10.0,65,0.00,,,0.23,,LWC V1.12 B30,2013-05-04 21:26:00,
2013-05-04 16:30:00,45.6,34.1,30.10,NNE,22,8.0,22.0,64,0.00,,,0.00,0,LWC V2.10 B1813,2013-05-04 21:30:00,
2013-05-04 16:31:00,45.7,34.2,30.11,NE,42,8.0,9.0,64,0.00,,,0.23,,LWC V1.12 B30,2013-05-04 21:31:00,
2013-05-04 16:36:00,45.4,33.6,30.11,NNW,329,12.0,21.0,63,0.00,,,0.23,,LWC V1.12 B30,2013-05-04 21:36:00,
2013-05-04 16:40:00,45.3,33.9,30.11,NNE,22,8.0,19.0,64,0.00,,,0.00,0,LWC V2.10 B1813,2013-05-04 21:40:00,
2013-05-04 16:41:00,45.4,33.6,30.11,NE,45,9.0,22.0,63,0.00,,,0.23,,LWC V1.12 B30,2013-05-04 21:41:00,
2013-05-04 16:46:00,45.5,33.6,30.11,NE,47,4.0,18.0,63,0.00,,,0.23,,LWC V1.12 B30,2013-05-04 21:46:00,
2013-05-04 16:50:00,45.3,33.9,30.11,NNE,22,8.0,19.0,64,0.00,,,0.00,0,LWC V2.10 B1813,2013-05-04 21:50:00,
2013-05-04 16:51:00,45.4,33.6,30.11,NE,44,11.0,15.0,63,0.00,,,0.23,,LWC V1.12 B30,2013-05-04 21:51:00,
2013-05-04 16:56:00,45.4,33.9,30.11,NE,52,10.0,26.0,64,0.00,,,0.23,,LWC V1.12 B30,2013-05-04 21:56:00,
2013-05-04 17:00:00,45.5,33.6,30.11,NNE,22,10.0,23.0,63,0.00,,,0.00,0,LWC V2.10 B1813,2013-05-04 22:00:00,
2013-05-04 17:01:00,45.3,33.5,30.11,NE,38,5.0,21.0,63,0.00,,,0.23,,LWC V1.12 B30,2013-05-04 22:01:00,
2013-05-04 17:06:00,45.2,33.4,30.11,NNW,347,11.0,19.0,63,0.00,,,0.23,,LWC V1.12 B30,2013-05-04 22:06:00,
2013-05-04 17:10:00,45.4,33.5,30.12,NE,45,9.0,26.0,63,0.00,,,0.00,0,LWC V2.10 B1813,2013-05-04 22:10:00,
2013-05-04 17:11:00,45.4,33.6,30.11,NNE,25,9.0,11.0,63,0.00,,,0.23,,LWC V1.12 B30,2013-05-04 22:11:00,
2013-05-04 17:16:00,45.4,33.6,30.11,NNE,26,9.0,18.0,63,0.00,,,0.23,,LWC V1.12 B30,2013-05-04 22:16:00,
2013-05-04 17:20:00,45.4,33.5,30.12,NE,45,9.0,26.0,63,0.00,,,0.00,0,LWC V2.10 B1813,2013-05-04 22:20:00,
2013-05-04 17:21:00,45.2,33.8,30.11,NNE,21,10.0,16.0,64,0.00,,,0.23,,LWC V1.12 B30,2013-05-04 22:21:00,
2013-05-04 17:26:00,45.0,34.0,30.12,NNW,335,13.0,19.0,65,0.00,,,0.23,,LWC V1.12 B30,2013-05-04 22:26:00,
2013-05-04 17:30:00,45.3,33.5,30.11,NNE,22,9.0,23.0,63,0.00,,,0.00,0,LWC V2.10 B1813,2013-05-04 22:30:00,
2013-05-04 17:31:00,45.0,33.6,30.12,NE,38,9.0,16.0,64,0.00,,,0.23,,LWC V1.12 B30,2013-05-04 22:31:00,
2013-05-04 17:36:00,45.2,33.4,30.11,NNE,28,13.0,22.0,63,0.00,,,0.23,,LWC V1.12 B30,2013-05-04 22:36:00,
2013-05-04 17:40:00,45.2,33.7,30.12,NNE,22,9.0,27.0,64,0.00,,,0.00,0,LWC V2.10 B1813,2013-05-04 22:40:00,
2013-05-04 17:41:00,45.4,33.6,30.12,NW,319,10.0,17.0,63,0.00,,,0.23,,LWC V1.12 B30,2013-05-04 22:41:00,
2013-05-04 17:46:00,45.4,33.6,30.12,NE,53,5.0,20.0,63,0.00,,,0.23,,LWC V1.12 B30,2013-05-04 22:46:00,
2013-05-04 17:50:00,45.2,33.7,30.12,NNE,22,9.0,27.0,64,0.00,,,0.00,0,LWC V2.10 B1813,2013-05-04 22:50:00,
2013-05-04 17:51:00,45.3,33.8,30.12,NE,42,4.0,13.0,64,0.00,,,0.23,,LWC V1.12 B30,2013-05-04 22:51:00,
2013-05-04 17:56:00,45.2,33.4,30.12,NNE,33,5.0,17.0,63,0.00,,,0.23,,LWC V1.12 B30,2013-05-04 22:56:00,
2013-05-04 18:00:00,45.2,33.4,30.12,NE,45,10.0,22.0,63,0.00,,,0.00,0,LWC V2.10 B1813,2013-05-04 23:00:00,
2013-05-04 18:01:00,45.2,33.4,30.12,NE,36,12.0,15.0,63,0.00,,,0.23,,LWC V1.12 B30,2013-05-04 23:01:00,
2013-05-04 18:06:00,45.1,33.7,30.12,WNW,294,9.0,15.0,64,0.00,,,0.23,,LWC V1.12 B30,2013-05-04 23:06:00,
2013-05-04 18:10:00,45.3,33.9,30.12,NE,45,8.0,20.0,64,0.00,,,0.00,0,LWC V2.10 B1813,2013-05-04 23:10:00,
2013-05-04 18:11:00,45.1,33.7,30.12,NNE,33,4.0,16.0,64,0.00,,,0.23,,LWC V1.12 B30,2013-05-04 23:11:00,
2013-05-04 18:16:00,45.4,33.6,30.13,NE,37,14.0,19.0,63,0.00,,,0.23,,LWC V1.12 B30,2013-05-04 23:16:00,
2013-05-04 18:20:00,45.3,33.9,30.12,NE,45,8.0,20.0,64,0.00,,,0.00,0,LWC V2.10 B1813,2013-05-04 23:20:00,
2013-05-04 18:21:00,45.3,33.5,30.13,NNW,331,12.0,18.0,63,0.00,,,0.23,,LWC V1.12 B30,2013-05-04 23:21:00,
2013-05-04 18:26:00,45.2,33.8,30.14,ENE,63,5.0,18.0,64,0.00,,,0.23,,LWC V1.12 B30,2013-05-04 23:26:00,
2013-05-04 18:30:00,45.2,33.7,30.12,NNE,22,9.0,20.0,64,0.00,,,0.00,0,LWC V2.10 B1813,2013-05-04 23:30:00,
2013-05-04 18:31:00,45.0,34.3,30.14,NE,37,3.0,14.0,66,0.00,,,0.23,,LWC V1.12 B30,2013-05-04 23:31:00,
2013-05-04 18:36:00,44.8,34.1,30.14,NNE,32,6.0,16.0,66,0.00,,,0.23,,LWC V1.12 B30,2013-05-04 23:36:00,
2013-05-04 18:40:00,45.3,34.2,30.14,NNE,22,9.0,20.0,65,0.00,,,0.00,0,LWC V2.10 B1813,2013-05-04 23:40:00,
2013-05-04 18:41:00,44.4,34.5,30.14,NE,34,6.0,15.0,68,0.00,,,0.23,,LWC V1.12 B30,2013-05-04 23:41:00,
2013-05-04 18:46:00,44.0,34.5,30.14,NE,40,3.0,12.0,69,0.00,,,0.23,,LWC V1.12 B30,2013-05-04 23:46:00,
2013-05-04 18:50:00,45.3,34.2,30.14,NNE,22,9.0,20.0,65,0.00,,,0.00,0,LWC V2.10 B1813,2013-05-04 23:50:00,
2013-05-04 18:51:00,43.8,34.7,30.14,NNE,17,17.0,21.0,70,0.00,,,0.23,,LWC V1.12 B30,2013-05-04 23:51:00,
2013-05-04 18:56:00,43.5,34.7,30.14,NE,40,11.0,11.0,71,0.00,,,0.23,,LWC V1.12 B30,2013-05-04 23:56:00,
2013-05-04 19:00:00,44.7,35.2,30.14,NE,45,7.0,17.0,69,0.00,,,0.00,0,LWC V2.10 B1813,2013-05-05 00:00:00,
2013-05-04 19:01:00,43.3,34.9,30.14,NE,36,5.0,17.0,72,0.00,,,0.23,,LWC V1.12 B30,2013-05-05 00:01:00,
2013-05-04 19:06:00,43.2,34.8,30.14,NNE,19,4.0,16.0,72,0.00,,,0.23,,LWC V1.12 B30,2013-05-05 00:06:00,
2013-05-04 19:10:00,43.7,35.3,30.14,NE,45,9.0,21.0,72,0.00,,,0.00,0,LWC V2.10 B1813,2013-05-05 00:10:00,
2013-05-04 19:11:00,43.1,34.7,30.14,NE,45,9.0,21.0,72,0.00,,,0.23,,LWC V1.12 B30,2013-05-05 00:11:00,
2013-05-04 19:17:00,42.9,34.9,30.14,NNW,340,6.0,13.0,73,0.00,,,0.23,,LWC V1.12 B30,2013-05-05 00:17:00,
2013-05-04 19:20:00,43.7,35.3,30.14,NE,45,9.0,21.0,72,0.00,,,0.00,0,LWC V2.10 B1813,2013-05-05 00:20:00,
2013-05-04 19:22:00,42.9,34.9,30.14,ENE,63,11.0,16.0,73,0.00,,,0.23,,LWC V1.12 B30,2013-05-05 00:22:00,
2013-05-04 19:27:00,42.6,34.9,30.14,NNE,21,12.0,15.0,74,0.00,,,0.23,,LWC V1.12 B30,2013-05-05 00:27:00,
2013-05-04 19:30:00,43.2,34.8,30.14,NE,45,9.0,22.0,72,0.00,,,0.00,0,LWC V2.10 B1813,2013-05-05 00:30:00,
2013-05-04 19:32:00,42.2,35.2,30.15,NE,40,5.0,10.0,76,0.00,,,0.24,,LWC V1.12 B30,2013-05-05 00:32:00,
2013-05-04 19:37:00,42.2,35.2,30.15,NNE,32,2.0,13.0,76,0.00,,,0.24,,LWC V1.12 B30,2013-05-05 00:37:00,
2013-05-04 19:40:00,42.8,35.4,30.14,NNE,22,8.0,20.0,75,0.00,,,0.00,0,LWC V2.10 B1813,2013-05-05 00:40:00,
2013-05-04 19:42:00,42.3,35.3,30.15,East,84,13.0,18.0,76,0.00,,,0.24,,LWC V1.12 B30,2013-05-05 00:42:00,
2013-05-04 19:47:00,42.1,35.4,30.16,ENE,59,3.0,12.0,77,0.00,,,0.24,,LWC V1.12 B30,2013-05-05 00:47:00,
2013-05-04 19:50:00,42.8,35.4,30.14,NNE,22,8.0,20.0,75,0.00,,,0.00,0,LWC V2.10 B1813,2013-05-05 00:50:00,
2013-05-04 19:52:00,42.0,35.3,30.15,NE,40,3.0,11.0,77,0.00,,,0.24,,LWC V1.12 B30,2013-05-05 00:52:00,
2013-05-04 19:57:00,41.9,35.5,30.16,NE,36,10.0,19.0,78,0.00,,,0.24,,LWC V1.12 B30,2013-05-05 00:57:00,
2013-05-04 20:00:00,42.2,35.2,30.15,NNE,22,8.0,20.0,76,0.00,,,0.00,0,LWC V2.10 B1813,2013-05-05 01:00:00,
2013-05-04 20:02:00,41.9,35.5,30.16,NE,34,5.0,10.0,78,0.00,,,0.24,,LWC V1.12 B30,2013-05-05 01:02:00,
2013-05-04 20:07:00,41.9,35.5,30.16,NE,49,7.0,11.0,78,0.00,,,0.24,,LWC V1.12 B30,2013-05-05 01:07:00,
2013-05-04 20:10:00,42.0,35.7,30.16,NE,45,7.0,19.0,78,0.00,,,0.00,0,LWC V2.10 B1813,2013-05-05 01:10:00,
2013-05-04 20:12:00,41.9,35.5,30.16,ENE,73,5.0,9.0,78,0.00,,,0.24,,LWC V1.12 B30,2013-05-05 01:12:00,
2013-05-04 20:17:00,41.9,35.2,30.16,NNE,25,4.0,14.0,77,0.00,,,0.25,,LWC V1.12 B30,2013-05-05 01:17:00,
2013-05-04 20:20:00,42.0,35.7,30.16,NE,45,7.0,19.0,78,0.00,,,0.00,0,LWC V2.10 B1813,2013-05-05 01:20:00,
2013-05-04 20:22:00,41.9,35.5,30.17,NE,37,4.0,10.0,78,0.00,,,0.25,,LWC V1.12 B30,2013-05-05 01:22:00,
2013-05-04 20:27:00,41.8,35.5,30.17,NNE,29,9.0,20.0,78,0.00,,,0.25,,LWC V1.12 B30,2013-05-05 01:27:00,
2013-05-04 20:30:00,41.9,35.2,30.16,NE,45,7.0,19.0,77,0.00,,,0.00,0,LWC V2.10 B1813,2013-05-05 01:30:00,
2013-05-04 20:32:00,41.6,35.6,30.17,NE,42,7.0,20.0,79,0.00,,,0.25,,LWC V1.12 B30,2013-05-05 01:32:00,
2013-05-04 20:37:00,41.3,35.9,30.16,NE,36,11.0,19.0,81,0.00,,,0.25,,LWC V1.12 B30,2013-05-05 01:37:00,
2013-05-04 20:40:00,41.8,35.8,30.17,NNE,22,7.0,20.0,79,0.00,,,0.00,0,LWC V2.10 B1813,2013-05-05 01:40:00,
2013-05-04 20:42:00,41.0,35.9,30.16,NE,34,11.0,15.0,82,0.00,,,0.25,,LWC V1.12 B30,2013-05-05 01:42:00,
2013-05-04 20:47:00,40.8,36.0,30.16,NE,49,4.0,12.0,83,0.00,,,0.25,,LWC V1.12 B30,2013-05-05 01:47:00,
2013-05-04 20:50:00,41.8,35.8,30.17,NNE,22,7.0,20.0,79,0.00,,,0.00,0,LWC V2.10 B1813,2013-05-05 01:50:00,
2013-05-04 20:52:00,40.7,36.2,30.16,NNE,22,7.0,14.0,84,0.00,,,0.25,,LWC V1.12 B30,2013-05-05 01:52:00,
2013-05-04 20:57:00,40.6,36.2,30.17,NE,42,5.0,12.0,84,0.00,,,0.25,,LWC V1.12 B30,2013-05-05 01:57:00,
2013-05-04 21:00:00,41.3,36.2,30.16,NNE,22,8.0,20.0,82,0.00,,,0.00,0,LWC V2.10 B1813,2013-05-05 02:00:00,
2013-05-04 21:02:00,40.7,36.2,30.17,NE,35,6.0,12.0,84,0.00,,,0.26,,LWC V1.12 B30,2013-05-05 02:02:00,
2013-05-04 21:07:00,40.7,36.2,30.17,NNE,22,5.0,12.0,84,0.00,,,0.26,,LWC V1.12 B30,2013-05-05 02:07:00,
2013-05-04 21:10:00,40.7,36.2,30.17,NE,45,7.0,17.0,84,0.00,,,0.00,0,LWC V2.10 B1813,2013-05-05 02:10:00,
2013-05-04 21:12:00,40.6,36.5,30.17,NE,36,7.0,17.0,85,0.00,,,0.26,,LWC V1.12 B30,2013-05-05 02:12:00,
2013-05-04 21:17:00,40.6,36.5,30.17,NNE,21,5.0,11.0,85,0.00,,,0.26,,LWC V1.12 B30,2013-05-05 02:17:00,
2013-05-04 21:20:00,40.7,36.2,30.17,NE,45,7.0,17.0,84,0.00,,,0.00,0,LWC V2.10 B1813,2013-05-05 02:20:00,
2013-05-04 21:22:00,40.6,36.5,30.18,ENE,63,3.0,10.0,85,0.00,,,0.26,,LWC V1.12 B30,2013-05-05 02:22:00,
2013-05-04 21:27:00,40.6,36.7,30.18,NNE,31,5.0,12.0,86,0.00,,,0.26,,LWC V1.12 B30,2013-05-05 02:27:00,
2013-05-04 21:30:00,40.7,36.6,30.17,NE,45,7.0,17.0,85,0.00,,,0.00,0,LWC V2.10 B1813,2013-05-05 02:30:00,
2013-05-04 21:32:00,40.6,36.7,30.18,ENE,62,8.0,16.0,86,0.00,,,0.26,,LWC V1.12 B30,2013-05-05 02:32:00,
2013-05-04 21:37:00,40.6,36.7,30.19,NNE,24,13.0,15.0,86,0.00,,,0.26,,LWC V1.12 B30,2013-05-05 02:37:00,
2013-05-04 21:40:00,40.6,36.8,30.18,NE,45,6.0,16.0,86,0.00,,,0.00,0,LWC V2.10 B1813,2013-05-05 02:40:00,
2013-05-04 21:42:00,40.6,36.7,30.19,NNE,25,5.0,15.0,86,0.00,,,0.26,,LWC V1.12 B30,2013-05-05 02:42:00,
2013-05-04 21:47:00,40.6,36.5,30.19,NE,34,4.0,10.0,85,0.00,,,0.26,,LWC V1.12 B30,2013-05-05 02:47:00,
2013-05-04 21:50:00,40.6,36.8,30.18,NE,45,6.0,16.0,86,0.00,,,0.00,0,LWC V2.10 B1813,2013-05-05 02:50:00,
2013-05-04 21:52:00,40.6,36.5,30.19,NNE,29,7.0,12.0,85,0.00,,,0.26,,LWC V1.12 B30,2013-05-05 02:52:00,
2013-05-04 21:57:00,40.6,36.7,30.19,NNE,26,7.0,9.0,86,0.00,,,0.26,,LWC V1.12 B30,2013-05-05 02:57:00,
2013-05-04 22:00:00,40.6,36.8,30.18,NE,45,7.0,16.0,86,0.00,,,0.00,0,LWC V2.10 B1813,2013-05-05 03:00:00,
2013-05-04 22:02:00,40.6,36.7,30.19,NNE,18,9.0,12.0,86,0.00,,,0.27,,LWC V1.12 B30,2013-05-05 03:02:00,
2013-05-04 22:07:00,40.6,36.7,30.19,North,9,6.0,6.0,86,0.00,,,0.27,,LWC V1.12 B30,2013-05-05 03:07:00,
2013-05-04 22:10:00,40.6,36.8,30.19,NE,45,6.0,12.0,86,0.00,,,0.00,0,LWC V2.10 B1813,2013-05-05 03:10:00,
2013-05-04 22:12:00,40.6,36.7,30.19,NNE,25,3.0,10.0,86,0.00,,,0.27,,LWC V1.12 B30,2013-05-05 03:12:00,
2013-05-04 22:17:00,40.7,36.8,30.19,NNE,25,2.0,11.0,86,0.00,,,0.27,,LWC V1.12 B30,2013-05-05 03:17:00,
2013-05-04 22:20:00,40.6,36.8,30.19,NE,45,6.0,12.0,86,0.00,,,0.00,0,LWC V2.10 B1813,2013-05-05 03:20:00,
2013-05-04 22:22:00,40.6,36.7,30.19,NE,38,3.0,12.0,86,0.00,,,0.27,,LWC V1.12 B30,2013-05-05 03:22:00,
2013-05-04 22:27:00,40.7,36.8,30.19,NNE,32,11.0,11.0,86,0.00,,,0.27,,LWC V1.12 B30,2013-05-05 03:27:00,
2013-05-04 22:30:00,40.6,36.8,30.19,NNE,22,5.0,12.0,86,0.00,,,0.00,0,LWC V2.10 B1813,2013-05-05 03:30:00,
2013-05-04 22:32:00,40.7,36.8,30.19,NNE,31,6.0,12.0,86,0.00,,,0.27,,LWC V1.12 B30,2013-05-05 03:32:00,
2013-05-04 22:37:00,40.7,36.5,30.19,NNE,28,3.0,6.0,85,0.00,,,0.27,,LWC V1.12 B30,2013-05-05 03:37:00,
2013-05-04 22:40:00,40.6,36.8,30.19,NNE,22,5.0,13.0,86,0.00,,,0.00,0,LWC V2.10 B1813,2013-05-05 03:40:00,
2013-05-04 22:42:00,40.7,36.5,30.19,NNE,28,5.0,11.0,85,0.00,,,0.27,,LWC V1.12 B30,2013-05-05 03:42:00,
2013-05-04 22:47:00,40.7,36.5,30.19,NNE,25,6.0,9.0,85,0.00,,,0.28,,LWC V1.12 B30,2013-05-05 03:47:00,
2013-05-04 22:50:00,40.6,36.8,30.19,NNE,22,5.0,13.0,86,0.00,,,0.00,0,LWC V2.10 B1813,2013-05-05 03:50:00,
2013-05-04 22:52:00,40.8,36.6,30.19,NNE,28,0.0,6.0,85,0.00,,,0.28,,LWC V1.12 B30,2013-05-05 03:52:00,
2013-05-04 22:57:00,40.9,36.7,30.19,NNE,30,1.0,7.0,85,0.00,,,0.28,,LWC V1.12 B30,2013-05-05 03:57:00,
2013-05-04 23:00:00,40.7,36.6,30.19,NNE,22,5.0,12.0,85,0.00,,,0.00,0,LWC V2.10 B1813,2013-05-05 04:00:00,
2013-05-04 23:01:00,40.9,36.7,30.19,NNE,13,5.0,9.0,85,0.00,,,0.28,,LWC V1.12 B30,2013-05-05 04:01:00,
2013-05-04 23:06:00,41.0,36.8,30.18,North,5,5.0,12.0,85,0.00,,,0.28,,LWC V1.12 B30,2013-05-05 04:06:00,
2013-05-04 23:10:00,40.8,36.6,30.19,NNE,22,3.0,10.0,85,0.00,,,0.00,0,LWC V2.10 B1813,2013-05-05 04:10:00,
2013-05-04 23:11:00,41.0,36.8,30.18,North,355,9.0,9.0,85,0.00,,,0.28,,LWC V1.12 B30,2013-05-05 04:11:00,
2013-05-04 23:16:00,41.0,36.8,30.19,NW,308,9.0,9.0,85,0.00,,,0.29,,LWC V1.12 B30,2013-05-05 04:16:00,
2013-05-04 23:20:00,40.8,36.6,30.19,NNE,22,3.0,10.0,85,0.00,,,0.00,0,LWC V2.10 B1813,2013-05-05 04:20:00,
2013-05-04 23:21:00,41.0,36.5,30.19,NNE,17,4.0,11.0,84,0.00,,,0.29,,LWC V1.12 B30,2013-05-05 04:21:00,
2013-05-04 23:26:00,41.0,36.5,30.19,NNE,31,10.0,10.0,84,0.00,,,0.29,,LWC V1.12 B30,2013-05-05 04:26:00,
2013-05-04 23:30:00,40.9,36.8,30.18,NNE,22,3.0,12.0,85,0.00,,,0.00,0,LWC V2.10 B1813,2013-05-05 04:30:00,
2013-05-04 23:31:00,40.9,36.4,30.19,NNE,32,3.0,6.0,84,0.00,,,0.30,,LWC V1.12 B30,2013-05-05 04:31:00,
2013-05-04 23:36:00,40.9,36.4,30.19,NNE,14,9.0,14.0,84,0.00,,,0.30,,LWC V1.12 B30,2013-05-05 04:36:00,
2013-05-04 23:40:00,41.0,36.5,30.19,NNE,22,5.0,13.0,84,0.00,,,0.00,0,LWC V2.10 B1813,2013-05-05 04:40:00,
2013-05-04 23:41:00,40.9,36.4,30.19,NNE,25,2.0,11.0,84,0.00,,,0.30,,LWC V1.12 B30,2013-05-05 04:41:00,
2013-05-04 23:46:00,40.8,36.3,30.19,NW,318,3.0,10.0,84,0.00,,,0.31,,LWC V1.12 B30,2013-05-05 04:46:00,
2013-05-04 23:50:00,41.0,36.5,30.19,NNE,22,5.0,13.0,84,0.00,,,0.00,0,LWC V2.10 B1813,2013-05-05 04:50:00,
2013-05-04 23:51:00,40.8,36.3,30.19,North,350,4.0,15.0,84,0.00,,,0.31,,LWC V1.12 B30,2013-05-05 04:51:00,
2013-05-04 23:56:00,40.8,36.3,30.19,NNE,20,11.0,14.0,84,0.00,,,0.31,,LWC V1.12 B30,2013-05-05 04:56:00,